Tracking 21605 objects as of 26-Oct-2020
HD Live streaming from Space Station
objects crossing your sky now

BEIDOU 3M23

Track BEIDOU 3M23 now!
BEIDOU 3M23 is classified as:


NORAD ID: 44542
Int'l Code: 2019-061A
Perigee: 21,508.4 km
Apogee: 21,561.9 km
Inclination: 54.8 °
Period: 773.2 minutes
Semi major axis: 27906 km
RCS: Unknown
Launch date: September 22, 2019
Source: People's Republic of China (PRC)
Launch site: Xichang Space Center, China (XSC)
aabbcc
Your satellite tracking list
Your tracking list is empty




NASA's NSSDC Master Catalog

Two Line Element Set (TLE):
1 44542U 19061A   20300.49516573 -.00000050  00000-0  10000-3 0  9991
2 44542  54.8113 252.4975 0009591 315.7059  42.6280  1.86231510  7423
Source of the keplerian elements: AFSPC